timestamp,surface_pressure_avg,surface_temp_avg,battery_voltage,lat,long
2024-04-28 00:09:00+00:00,314.4581,2.58,12.33,47.84626,-54.09684
2024-04-28 00:19:00+00:00,320.7629,2.58,12.25,47.84626,-54.09684
2024-04-28 00:29:00+00:00,325.688,2.55,12.25,47.84626,-54.09684
2024-04-28 00:39:00+00:00,333.7480000000001,2.51,12.25,47.84626,-54.09684
2024-04-28 00:49:00+00:00,338.038,2.5,12.25,47.84626,-54.09684
2024-04-28 00:59:00+00:00,335.5346,2.5,12.25,47.84626,-54.09684
2024-04-28 01:09:00+00:00,335.4581,2.5,12.25,47.84626,-54.09684
2024-04-28 01:19:00+00:00,341.223,2.49,12.25,47.84626,-54.09684
2024-04-28 01:29:00+00:00,345.7346,2.49,12.25,47.84626,-54.09684
2024-04-28 01:39:00+00:00,348.6578,2.48,12.25,47.84626,-54.09684
2024-04-28 01:49:00+00:00,348.1345,2.44,12.25,47.84626,-54.09684
2024-04-28 01:59:00+00:00,349.6346,2.45,12.25,47.84626,-54.09684
2024-04-28 02:09:00+00:00,351.0363,2.48,12.25,47.84626,-54.09684
2024-04-28 02:19:00+00:00,349.963,2.49,12.25,47.84626,-54.09684
2024-04-28 02:29:00+00:00,349.2195,2.49,12.25,47.84626,-54.09684
2024-04-28 02:39:00+00:00,349.82800000000015,2.47,12.25,47.84626,-54.09684
2024-04-28 02:49:00+00:00,352.3162,2.4,12.25,47.84626,-54.09684
2024-04-28 02:59:00+00:00,351.5913,2.4,12.25,47.84626,-54.09684
2024-04-28 03:09:00+00:00,348.3579,2.4,12.25,47.84626,-54.09684
2024-04-28 03:19:00+00:00,345.1596,2.37,12.25,47.84626,-54.09684
2024-04-28 03:29:00+00:00,343.0762,2.39,12.25,47.84626,-54.09684
2024-04-28 03:39:00+00:00,339.3746,2.39,12.25,47.84626,-54.09684
2024-04-28 03:49:00+00:00,336.0196,2.4,12.25,47.84626,-54.09684
2024-04-28 03:59:00+00:00,329.093,2.4,12.25,47.84626,-54.09684
2024-04-28 04:09:00+00:00,326.2813,2.31,12.25,47.84626,-54.09684
2024-04-28 04:19:00+00:00,321.4513,2.3,12.25,47.84626,-54.09684
2024-04-28 04:29:00+00:00,312.6313,2.3,12.25,47.84626,-54.09684
2024-04-28 04:39:00+00:00,299.4246,2.3,12.25,47.84626,-54.09684
2024-04-28 04:49:00+00:00,294.4464,2.36,12.25,47.84626,-54.09684
2024-04-28 04:59:00+00:00,291.3781,2.38,12.25,47.84626,-54.09684
2024-04-28 05:09:00+00:00,282.488,2.39,12.25,47.84626,-54.09684
2024-04-28 05:19:00+00:00,270.4881,2.4,12.25,47.84626,-54.09684
2024-04-28 05:29:00+00:00,266.5781,2.4,12.25,47.84626,-54.09684
2024-04-28 05:39:00+00:00,264.6198,2.4,12.25,47.84626,-54.09684
2024-04-28 05:49:00+00:00,254.1114,2.41,12.25,47.84626,-54.09684
2024-04-28 05:59:00+00:00,241.6881,2.5,12.25,47.84626,-54.09684
2024-04-28 06:09:00+00:00,238.9148,2.52,12.25,47.84626,-54.09684
2024-04-28 06:19:00+00:00,234.3198,2.6,12.25,47.84626,-54.09684
2024-04-28 06:29:00+00:00,224.0831,2.69,12.25,47.84626,-54.09684
2024-04-28 06:39:00+00:00,213.3065,2.7,12.25,47.84626,-54.09684
2024-04-28 06:49:00+00:00,209.6413,2.7,12.25,47.84626,-54.09684
2024-04-28 06:59:00+00:00,207.1831,2.7,12.25,47.84626,-54.09684
2024-04-28 07:09:00+00:00,197.4698,2.7,12.25,47.84626,-54.09684
2024-04-28 07:19:00+00:00,186.3214,2.7,12.25,47.84626,-54.09684
2024-04-28 07:29:00+00:00,189.5931,2.69,12.25,47.84626,-54.09684
2024-04-28 07:39:00+00:00,196.4749,2.64,12.25,47.84626,-54.09684
2024-04-28 07:49:00+00:00,191.3981,2.61,12.25,47.84626,-54.09684
2024-04-28 07:59:00+00:00,189.3215,2.6,12.25,47.84626,-54.09684
2024-04-28 08:09:00+00:00,194.6181,2.52,12.25,47.84626,-54.09684
2024-04-28 08:19:01+00:00,198.8415,2.5,12.17,47.84626,-54.09684
2024-04-28 08:29:01+00:00,201.7781,2.5,12.17,47.84626,-54.09684
2024-04-28 08:39:01+00:00,203.1747,2.49,12.17,47.84626,-54.09684
2024-04-28 08:49:01+00:00,203.6947,2.46,12.17,47.84626,-54.09684
2024-04-28 08:59:01+00:00,206.8514,2.43,12.17,47.84626,-54.09684
2024-04-28 09:09:01+00:00,211.9665,2.4,12.17,47.84626,-54.09684
2024-04-28 09:19:00+00:00,215.9498,2.4,12.25,47.84626,-54.09684
2024-04-28 09:29:00+00:00,220.0247,2.45,12.25,47.84626,-54.09684
2024-04-28 09:39:00+00:00,220.2081,2.57,12.25,47.84626,-54.09684
2024-04-28 09:49:00+00:00,220.6964,2.67,12.25,47.84626,-54.09684
2024-04-28 09:59:00+00:00,226.8797,2.68,12.25,47.84626,-54.09684
2024-04-28 10:09:00+00:00,229.7047,2.6,12.25,47.84626,-54.09684
2024-04-28 10:19:00+00:00,226.3997,2.6,12.65,47.84626,-54.09684
2024-04-28 10:29:00+00:00,225.7814,2.5,12.65,47.84626,-54.09684
2024-04-28 10:39:00+00:00,229.2681,2.5,12.65,47.84626,-54.09684
2024-04-28 10:49:00+00:00,226.9797,2.5,12.65,47.84626,-54.09684
2024-04-28 10:59:00+00:00,226.9747,2.5,12.65,47.84626,-54.09684
2024-04-28 11:09:00+00:00,233.2598,2.5,12.65,47.84626,-54.09684
2024-04-28 11:19:00+00:00,237.8114,2.5,13.29,47.84626,-54.09684
2024-04-28 11:29:00+00:00,237.3214,2.5,13.29,47.84626,-54.09684
2024-04-28 11:39:00+00:00,238.6198,2.5,13.29,47.84626,-54.09684
2024-04-28 11:49:00+00:00,246.7464,2.54,13.29,47.84626,-54.09684
2024-04-28 11:59:00+00:00,253.7631,2.5,13.29,47.84626,-54.09684
2024-04-28 12:09:00+00:00,261.9181,2.47,13.29,47.84626,-54.09684
2024-04-28 12:19:00+00:00,269.5147,2.48,12.73,47.84626,-54.09684
2024-04-28 12:29:00+00:00,276.6348,2.58,12.73,47.84626,-54.09684
2024-04-28 12:39:00+00:00,280.303,2.4,12.73,47.84626,-54.09684
2024-04-28 12:49:00+00:00,287.2881,2.4,12.73,47.84626,-54.09684
2024-04-28 12:59:00+00:00,292.5197,2.4,12.73,47.84626,-54.09684
2024-04-28 13:09:00+00:00,296.7097,2.4,12.73,47.84626,-54.09684
2024-04-28 13:19:00+00:00,302.3263,2.33,12.73,47.84626,-54.09684
2024-04-28 13:29:00+00:00,308.6663,2.3,12.73,47.84626,-54.09684
2024-04-28 13:39:00+00:00,309.4713,2.4,12.73,47.84626,-54.09684
2024-04-28 13:49:00+00:00,307.5547,2.4,12.73,47.84626,-54.09684
2024-04-28 13:59:00+00:00,311.2681,2.39,12.73,47.84626,-54.09684
2024-04-28 14:09:00+00:00,314.173,2.39,12.73,47.84626,-54.09684
2024-04-28 14:19:00+00:00,313.4663,2.4,12.81,47.84626,-54.09684
2024-04-28 14:29:00+00:00,311.4247,2.4,12.81,47.84626,-54.09684
2024-04-28 14:39:00+00:00,310.58799999999997,2.4,12.81,47.84626,-54.09684
2024-04-28 14:49:00+00:00,310.4647,2.4,12.81,47.84626,-54.09684
2024-04-28 14:59:00+00:00,311.4196,2.4,12.81,47.84626,-54.09684
2024-04-28 15:09:00+00:00,313.1647,2.4,12.81,47.84626,-54.09684
2024-04-28 15:19:00+00:00,309.198,2.4,12.81,47.84626,-54.09684
2024-04-28 15:29:00+00:00,305.8763,2.4,12.81,47.84626,-54.09684
2024-04-28 15:39:00+00:00,310.5997,2.4,12.81,47.84626,-54.09684
2024-04-28 15:49:00+00:00,309.2563,2.4,12.81,47.84626,-54.09684
2024-04-28 15:59:00+00:00,301.5847,2.43,12.81,47.84626,-54.09684
2024-04-28 16:09:00+00:00,301.8363,2.44,12.81,47.84626,-54.09684
2024-04-28 16:19:00+00:00,304.973,2.4,12.65,47.84626,-54.09684
2024-04-28 16:29:00+00:00,296.853,2.4,12.65,47.84626,-54.09684
2024-04-28 16:39:00+00:00,286.4714,2.4,12.65,47.84626,-54.09684
2024-04-28 16:49:00+00:00,286.813,2.43,12.65,47.84626,-54.09684
2024-04-28 16:59:00+00:00,282.728,2.4,12.65,47.84626,-54.09684
2024-04-28 17:09:00+00:00,268.1631,2.63,12.65,47.84626,-54.09684
2024-04-28 17:19:00+00:00,261.3814,2.5,12.65,47.84626,-54.09684
2024-04-28 17:29:00+00:00,261.5147,2.45,12.65,47.84626,-54.09684
2024-04-28 17:39:00+00:00,250.3148,2.49,12.65,47.84626,-54.09684
2024-04-28 17:49:00+00:00,237.4698,2.59,12.65,47.84626,-54.09684
2024-04-28 17:59:00+00:00,236.9648,2.6,12.65,47.84626,-54.09684
2024-04-28 18:09:00+00:00,234.7014,2.57,12.65,47.84626,-54.09684
2024-04-28 18:19:00+00:00,223.3714,2.52,12.65,47.84626,-54.09684
2024-04-28 18:29:00+00:00,217.8481,2.59,12.65,47.84626,-54.09684
2024-04-28 18:39:00+00:00,217.1798,2.6,12.65,47.84626,-54.09684
2024-04-28 18:49:00+00:00,208.1181,2.6,12.65,47.84626,-54.09684
2024-04-28 18:59:00+00:00,200.8948,2.64,12.65,47.84626,-54.09684
2024-04-28 19:09:00+00:00,203.0931,2.69,12.65,47.84626,-54.09684
2024-04-28 19:19:00+00:00,202.8381,2.6,12.41,47.84626,-54.09684
2024-04-28 19:29:00+00:00,196.1815,2.6,12.41,47.84626,-54.09684
2024-04-28 19:39:00+00:00,191.0865,2.73,12.41,47.84626,-54.09684
2024-04-28 19:49:00+00:00,192.5314,2.8,12.41,47.84626,-54.09684
2024-04-28 19:59:00+00:00,192.4632,2.87,12.41,47.84626,-54.09684
2024-04-28 20:09:00+00:00,190.2964,2.8,12.41,47.84626,-54.09684
2024-04-28 20:19:00+00:00,192.9247,2.8,12.41,47.84626,-54.09684
2024-04-28 20:29:00+00:00,195.5364,2.9,12.41,47.84626,-54.09684
2024-04-28 20:39:00+00:00,196.1648,2.8,12.41,47.84626,-54.09684
2024-04-28 20:49:00+00:00,195.8648,2.8,12.41,47.84626,-54.09684
2024-04-28 20:59:00+00:00,198.5748,2.7,12.41,47.84626,-54.09684
2024-04-28 21:09:00+00:00,202.3865,2.7,12.41,47.84626,-54.09684
2024-04-28 21:19:00+00:00,203.1731,2.7,12.33,47.84626,-54.09684
2024-04-28 21:29:00+00:00,207.6714,2.68,12.33,47.84626,-54.09684
2024-04-28 21:39:00+00:00,212.8215,2.67,12.33,47.84626,-54.09684
2024-04-28 21:49:00+00:00,217.6199,2.68,12.33,47.84626,-54.09684
2024-04-28 21:59:00+00:00,223.8664,2.69,12.33,47.84626,-54.09684
2024-04-28 22:09:00+00:00,227.8914,2.69,12.33,47.84626,-54.09684
2024-04-28 22:19:00+00:00,230.6864,2.7,12.33,47.84626,-54.09684
2024-04-28 22:29:00+00:00,236.5347,2.7,12.33,47.84626,-54.09684
2024-04-28 22:39:00+00:00,243.763,2.7,12.33,47.84626,-54.09684
2024-04-28 22:49:00+00:00,246.6948,2.7,12.33,47.84626,-54.09684
2024-04-28 22:59:00+00:00,248.3814,2.7,12.33,47.84626,-54.09684
2024-04-28 23:09:00+00:00,254.3897,2.7,12.33,47.84626,-54.09684
2024-04-28 23:19:00+00:00,260.7397,2.77,12.33,47.84626,-54.09684
2024-04-28 23:29:00+00:00,266.6731,2.46,12.33,47.84626,-54.09684
2024-04-28 23:39:00+00:00,270.7398,2.46,12.33,47.84626,-54.09684
2024-04-28 23:49:00+00:00,274.0781,2.87,12.33,47.84626,-54.09684
2024-04-28 23:59:00+00:00,276.883,2.9,12.33,47.84626,-54.09684
